Theta_e
345 347 352 356 358 360 361 362 348 346 345 329 333 339 342 349 347 350 350 349 351 351 348 347 347 347 347 348 351 351 352 353 353 348 345 354 354 352 355 354 355 355 354 354 353 353 353 355 355 354 353 354 355 354 352 351 351 350 349 350 350 350 351 351 351 351 351 352 349 348 347 345 344 346 348 349 350 350 350 350 350 349 348 347 347 348 349 350 350 350 350 349 349 348 348 347 348
352 355 357 358 359 360 358 359 342 330 332 326 335 341 345 352 349 350 351 350 351 350 348 348 347 346 346 347 348 350 351 350 351 351 351 354 353 353 354 354 355 354 354 353 353 354 354 355 353 353 353 353 353 352 351 351 350 350 349 349 349 349 351 351 351 352 353 353 350 349 348 346 346 348 349 350 350 349 349 349 349 348 348 348 348 350 351 351 350 349 349 349 349 348 348 347 347
358 357 358 359 360 361 360 355 334 320 323 325 334 346 349 351 350 351 351 350 351 349 349 347 347 347 345 347 349 351 352 349 348 349 351 353 353 354 354 355 355 355 355 353 354 354 354 354 352 352 352 352 351 350 350 350 350 350 349 349 349 350 352 352 353 353 354 352 351 350 348 347 348 349 350 349 348 348 348 348 348 348 349 349 349 350 350 350 350 349 348 348 348 348 348 348 348
358 357 360 361 360 359 355 346 333 323 321 323 330 348 353 351 352 351 351 350 349 349 349 348 349 348 347 349 349 350 351 349 350 350 351 354 354 353 354 354 355 356 355 355 354 354 354 353 352 352 352 351 351 351 349 349 350 349 350 349 349 351 353 353 354 354 353 352 351 350 349 349 349 349 350 349 347 347 347 347 348 349 349 349 349 349 349 349 349 349 347 347 348 348 349 350 349
356 358 360 361 359 355 348 339 334 327 324 327 331 348 355 351 353 351 351 349 349 349 349 349 349 348 347 349 349 350 351 349 351 352 353 354 354 353 354 354 355 356 355 356 354 353 354 353 353 352 352 351 352 351 349 348 349 348 348 348 348 351 354 355 354 354 353 351 351 350 350 349 349 350 349 348 347 346 346 347 348 349 349 348 347 347 347 348 348 348 347 346 347 348 348 350 349
356 360 360 360 357 352 345 332 327 326 334 340 338 349 354 351 353 351 351 350 350 349 348 349 348 349 349 349 348 350 350 349 352 354 355 355 354 354 354 355 356 356 355 356 354 354 354 354 354 354 353 353 352 351 351 350 350 351 349 350 352 353 354 355 354 353 352 352 351 351 350 349 349 349 348 347 346 346 347 348 348 348 348 347 347 346 346 347 347 347 346 346 348 347 347 349 349
358 360 358 358 354 350 339 325 325 328 339 346 342 349 353 351 352 351 352 352 351 349 349 348 347 350 350 349 349 351 351 351 352 353 354 355 355 355 355 355 355 356 355 355 355 355 353 354 355 355 355 355 354 353 353 352 353 354 353 354 354 354 354 354 353 352 351 350 350 349 349 349 349 348 346 345 345 347 348 348 347 347 348 346 345 346 346 347 346 345 345 346 348 349 349 349 349
358 356 354 354 348 342 333 326 331 335 340 345 345 349 352 352 351 351 352 351 352 350 349 348 346 350 350 348 351 353 353 352 353 353 354 355 355 356 355 355 355 355 356 355 355 354 352 353 355 355 356 355 355 355 355 354 354 354 353 355 354 354 354 353 351 350 350 349 349 348 348 349 348 347 344 344 346 348 348 348 348 348 348 344 343 343 345 345 344 344 346 348 349 349 350 350 349
355 353 352 348 341 335 329 328 333 339 343 344 345 348 351 351 350 351 351 351 351 349 349 347 346 350 350 351 352 352 354 354 354 354 354 354 355 355 354 354 355 355 356 356 355 354 353 353 354 355 355 354 354 354 354 354 354 353 353 353 353 353 352 352 351 349 349 348 348 348 348 348 347 344 343 344 347 348 348 349 349 348 347 344 342 342 343 343 343 344 345 348 348 348 349 350 350
353 350 350 345 336 328 322 327 332 339 343 344 345 348 350 350 350 350 350 350 350 350 350 346 347 349 350 351 351 351 353 354 354 355 354 355 355 354 354 354 355 356 356 356 356 356 354 352 354 354 355 353 352 353 352 351 350 350 349 349 350 352 352 352 351 348 347 346 346 348 347 347 345 343 343 346 348 349 349 349 349 347 344 343 342 341 342 343 342 342 342 343 345 347 348 348 349
354 347 345 338 329 322 320 325 332 340 344 344 346 346 348 348 350 349 349 350 349 351 349 347 348 349 350 351 351 353 354 354 355 355 355 355 355 354 354 354 354 356 356 356 356 356 355 353 353 353 353 350 349 350 350 349 348 348 346 346 348 351 352 351 350 347 346 346 346 347 347 346 345 344 346 347 348 349 349 349 348 345 342 342 341 341 342 342 341 340 341 342 344 347 347 347 348
353 346 344 335 326 326 327 328 332 341 344 344 346 346 346 346 348 349 349 349 350 350 348 348 348 347 350 352 351 353 354 353 354 355 355 355 354 355 354 354 354 354 355 356 356 356 355 353 352 352 352 349 349 349 350 350 349 348 347 347 349 351 351 350 350 348 348 348 347 347 347 347 346 346 348 349 349 349 349 348 346 344 344 344 343 343 343 342 342 342 342 343 344 347 347 346 347
351 346 342 334 330 335 334 332 336 341 341 343 346 346 346 346 348 347 347 347 348 348 347 348 346 347 351 350 350 351 352 353 354 354 354 354 354 355 354 354 354 354 354 355 356 355 355 354 354 354 352 351 351 351 352 352 351 351 350 349 350 351 351 351 350 349 350 349 349 348 347 348 348 347 348 349 350 350 349 349 346 346 347 346 346 345 345 344 345 346 346 346 346 346 347 348 348
349 344 340 336 336 340 336 335 337 336 336 343 346 346 347 346 347 346 346 345 346 347 347 347 344 348 351 351 350 347 350 353 354 354 354 354 354 354 354 354 355 355 354 355 355 356 356 355 355 356 354 355 354 353 353 353 353 353 352 351 351 351 351 351 350 350 350 350 349 349 349 349 349 349 349 350 350 350 348 348 347 347 347 345 346 347 346 347 348 348 348 347 347 347 348 348 349
348 342 340 338 335 336 336 337 338 333 334 345 347 346 348 346 347 345 345 346 348 347 346 348 345 349 350 350 350 347 350 353 354 354 354 354 354 355 354 354 355 355 354 355 356 355 357 356 356 356 355 356 355 354 354 352 352 351 351 351 350 350 350 350 350 350 350 350 350 350 350 350 350 350 349 349 349 349 348 349 347 345 344 342 344 346 347 349 349 348 348 347 348 348 348 348 349
347 343 340 337 331 330 334 340 340 334 337 346 346 346 349 347 346 346 347 347 348 347 345 347 347 347 348 348 349 348 350 352 354 355 354 355 354 355 355 354 355 355 354 355 356 356 357 357 356 356 356 356 354 355 354 352 350 349 349 349 349 348 348 348 349 349 350 350 350 349 349 350 351 350 350 350 349 348 349 348 346 343 342 343 344 345 347 349 348 348 348 348 347 347 348 348 348
344 344 341 333 329 329 334 342 339 335 340 347 347 347 349 347 346 347 348 346 347 347 345 345 346 346 347 347 350 350 350 351 354 355 355 354 354 355 354 354 355 354 355 354 356 357 357 357 357 356 356 355 355 355 355 355 349 347 349 348 349 349 348 347 348 350 350 351 349 348 349 353 355 353 352 353 350 350 350 346 344 344 344 345 346 347 348 348 348 348 348 347 347 347 347 348 350
344 344 338 329 332 334 336 342 340 339 344 347 347 347 348 347 348 347 346 346 346 347 346 345 346 347 348 351 351 351 351 351 354 354 354 354 354 354 354 355 355 354 355 355 356 357 356 358 358 356 356 356 356 355 356 355 350 350 353 350 350 350 349 349 350 352 353 353 350 349 353 357 357 356 356 355 353 351 349 346 344 345 346 346 347 348 347 348 348 348 348 347 347 346 347 352 354
343 344 338 332 337 338 338 341 340 341 344 345 347 347 347 347 347 346 346 347 347 348 348 346 349 349 350 352 352 352 352 352 352 351 353 354 354 354 354 355 354 354 355 355 356 357 356 358 358 356 355 356 356 355 355 355 353 354 356 354 353 352 352 352 354 355 356 356 354 355 357 357 356 357 356 354 352 350 348 344 342 344 345 347 347 347 348 349 348 348 348 347 348 348 350 354 355
341 342 338 337 339 338 339 340 341 342 344 346 346 346 347 347 347 345 346 346 346 348 347 348 351 351 350 351 352 353 351 352 351 350 351 351 352 354 354 355 355 355 355 355 356 356 356 357 357 356 356 356 355 355 354 354 355 355 355 355 355 354 354 355 356 357 358 357 357 357 357 355 355 355 353 348 348 350 350 346 346 346 348 351 351 349 351 352 350 351 351 349 351 353 353 354 353
338 341 339 338 339 338 339 339 341 342 343 345 346 347 347 346 346 344 345 345 345 345 345 347 350 351 350 349 351 353 352 352 352 350 351 351 350 351 353 354 355 355 355 355 355 356 356 356 357 356 356 356 355 355 354 354 356 355 354 355 355 355 356 357 357 357 358 356 356 356 355 355 354 354 353 350 351 353 353 351 351 351 352 355 353 350 353 355 354 355 354 352 353 354 353 353 352
338 341 339 338 338 338 338 338 340 342 343 345 345 347 347 346 346 344 344 343 342 342 343 345 348 348 349 349 351 352 352 352 352 351 351 352 350 350 351 352 353 353 354 355 355 356 356 356 356 357 357 356 357 356 355 354 355 355 354 354 354 354 356 357 357 356 356 355 355 355 354 355 354 353 354 353 353 353 353 353 353 354 354 354 353 352 353 355 355 354 353 352 353 352 352 353 352
337 339 338 338 338 337 337 337 341 343 344 345 345 346 345 347 346 344 343 343 343 342 343 344 347 349 349 350 351 350 349 350 352 352 351 351 351 350 350 350 351 352 352 353 353 355 355 356 356 356 357 357 357 356 355 354 354 354 354 354 354 354 355 355 356 355 355 355 355 355 354 354 354 353 353 352 353 353 353 353 354 354 353 352 353 353 353 353 354 353 353 353 353 352 352 353 354
337 337 338 338 336 337 336 337 341 343 344 345 344 344 346 347 345 344 343 344 345 343 344 345 349 351 349 349 348 348 350 351 351 352 352 352 351 351 351 351 351 351 351 352 351 353 354 356 356 356 356 356 356 357 356 355 354 354 354 354 354 354 354 354 354 355 355 355 355 355 354 353 354 353 353 354 354 354 353 353 354 353 352 352 352 353 353 353 353 353 353 353 353 353 353 353 354
336 337 337 335 335 334 334 338 341 342 344 344 345 345 346 345 344 345 343 344 345 345 345 346 349 350 348 347 346 349 350 352 352 352 351 351 351 352 352 351 352 351 351 352 351 352 353 354 356 356 356 356 356 356 355 355 354 354 354 354 354 354 354 353 354 355 355 355 355 355 354 353 353 353 354 355 354 355 354 354 354 353 352 352 352 353 353 353 353 353 353 352 352 353 353 353 354
336 336 335 333 333 333 334 337 341 343 343 344 346 345 345 345 345 345 345 346 346 347 347 347 348 347 348 347 346 349 349 351 352 351 351 351 350 351 352 352 352 353 352 353 352 352 353 353 355 355 355 356 355 355 355 355 355 355 355 355 355 355 354 354 355 355 355 354 354 355 354 353 354 354 355 355 355 355 355 355 354 353 352 352 353 353 353 354 353 353 353 353 353 353 353 353 354
333 333 333 333 333 333 334 337 341 342 345 346 345 345 345 346 346 344 345 348 347 347 348 347 348 347 348 347 347 352 352 352 353 352 351 351 352 351 352 352 352 353 353 353 353 352 353 353 354 354 354 356 355 355 355 355 356 355 355 355 355 355 355 355 355 354 354 354 354 355 354 353 354 355 356 356 355 355 355 355 354 353 353 352 352 352 353 354 353 353 353 352 352 353 352 353 352
331 331 334 335 334 335 335 338 342 343 346 345 344 347 348 347 345 344 346 348 348 348 349 348 348 349 349 347 348 353 354 354 354 353 353 353 353 352 351 352 352 353 353 354 354 353 354 354 354 354 354 355 356 355 355 355 356 356 356 356 355 356 356 355 355 355 354 354 355 355 354 354 355 357 358 357 356 356 356 355 354 353 354 353 351 352 354 354 354 354 353 353 352 352 352 350 350
332 332 336 337 337 337 337 340 343 345 346 344 345 346 347 349 345 345 348 348 349 349 349 349 349 349 349 350 350 353 355 355 355 354 354 353 353 353 352 352 352 352 353 353 354 354 354 354 353 354 354 355 355 355 355 355 355 355 355 355 355 355 355 355 355 355 354 355 355 356 356 356 357 358 359 358 356 356 356 356 355 353 354 354 353 352 354 354 353 352 353 353 352 351 351 348 348
334 334 336 337 335 336 339 342 344 346 345 345 345 333 336 349 346 346 349 347 349 349 349 350 349 349 349 350 352 353 355 356 356 355 354 354 353 353 352 352 351 352 353 353 354 355 354 353 353 354 355 354 355 354 354 355 355 355 355 355 355 355 354 354 355 355 355 356 356 357 357 358 358 358 359 358 358 356 356 356 355 355 354 354 354 353 354 353 352 352 352 352 351 350 348 346 345
336 335 336 335 326 328 342 343 343 347 345 348 344 326 330 346 346 348 351 347 350 350 349 350 349 350 350 351 353 353 354 356 357 355 354 354 354 353 352 352 351 351 353 353 355 355 354 353 353 354 356 355 355 355 355 355 356 356 355 355 356 356 354 354 355 355 356 357 357 358 358 358 357 356 356 357 357 357 356 355 355 356 355 353 355 354 354 354 353 353 352 351 349 347 345 343 343
337 330 325 330 324 327 345 344 343 348 345 348 342 328 332 343 347 350 350 347 350 351 349 349 349 351 350 351 352 351 353 356 356 355 354 354 354 355 353 353 353 352 353 354 355 356 354 354 355 355 356 357 357 357 356 355 356 356 357 357 356 356 355 354 355 356 356 357 357 358 359 359 357 354 354 354 356 358 357 356 356 356 354 354 355 354 352 353 353 352 351 348 345 344 342 341 341
337 329 318 322 323 327 341 342 343 347 346 349 343 334 336 342 348 350 350 348 349 351 350 350 349 350 351 351 351 351 351 354 355 355 354 354 355 356 355 354 354 354 354 355 356 356 354 355 357 356 356 357 357 358 357 356 357 358 358 358 357 357 356 356 357 357 357 357 357 358 359 360 357 353 353 353 355 357 357 356 356 356 355 354 353 352 350 350 349 348 347 345 344 343 341 340 340
327 329 321 323 327 326 330 339 344 344 346 349 346 341 339 342 350 352 350 349 349 350 350 350 350 350 351 350 350 351 351 353 354 354 355 354 355 356 355 355 355 355 355 355 355 356 355 355 358 356 356 358 358 359 359 357 358 359 359 359 359 358 358 358 358 357 358 357 357 358 359 359 356 353 353 354 354 355 356 355 355 355 354 351 350 349 348 347 346 344 345 344 344 343 341 340 342
320 322 320 321 327 326 327 336 343 345 346 347 346 344 342 345 351 352 351 350 349 351 351 351 351 351 351 352 350 350 351 351 352 354 354 354 355 356 355 355 356 356 354 354 354 356 356 356 358 357 356 357 357 358 359 358 359 359 359 358 358 358 358 358 358 358 357 357 356 357 358 359 357 354 353 355 354 355 355 355 354 352 350 348 347 347 346 345 345 345 344 343 344 345 343 343 343
328 328 324 320 322 325 332 339 341 346 346 345 345 343 343 345 350 353 351 351 351 350 351 351 352 352 352 352 351 351 352 351 352 354 354 354 355 355 355 354 355 355 354 353 354 356 357 357 358 358 357 356 356 358 359 358 357 357 357 357 357 358 358 359 359 358 357 357 356 356 358 358 356 354 354 355 355 355 354 352 351 349 347 346 346 345 344 344 344 344 343 344 345 345 344 344 344
335 332 328 324 323 324 334 340 342 346 343 341 345 345 345 344 347 353 352 351 352 351 352 352 352 353 353 353 352 352 352 351 352 355 354 354 355 355 355 354 354 355 356 355 356 357 359 358 358 359 359 357 356 357 358 357 356 356 357 357 357 358 359 359 359 358 357 356 356 357 357 357 356 355 354 354 354 354 352 350 349 347 346 346 346 345 345 344 343 343 344 345 345 344 344 343 344
335 331 326 324 323 326 335 341 343 346 340 338 345 344 344 345 345 351 352 353 353 352 352 353 353 353 353 354 353 352 352 350 351 353 354 354 354 355 356 356 356 357 357 357 358 359 360 360 360 360 360 359 357 357 358 358 357 357 357 357 357 358 359 358 357 357 356 354 356 358 356 356 357 355 355 354 353 352 350 349 348 346 347 346 346 346 345 345 343 343 344 344 344 344 343 343 343
333 331 325 320 324 329 335 343 345 346 339 337 344 342 342 346 346 349 352 353 353 352 352 353 354 354 354 354 354 353 352 351 350 351 353 354 353 354 356 357 357 357 358 359 360 360 361 361 360 361 360 360 359 358 359 359 359 359 358 358 358 357 357 356 356 355 356 354 355 357 356 356 356 354 356 355 352 351 349 348 348 347 347 347 346 344 344 344 343 343 343 343 343 342 342 342 343
331 329 322 318 326 327 326 336 345 346 342 340 343 341 342 348 346 347 351 352 353 352 351 352 354 354 354 354 353 353 352 352 351 349 350 351 352 353 354 356 356 357 358 360 361 362 362 362 362 361 361 360 360 360 360 360 360 361 360 361 361 358 355 355 356 356 357 356 356 356 356 356 355 354 355 353 351 350 349 348 348 348 347 347 344 341 343 343 343 343 343 343 343 342 341 341 341
328 330 324 322 328 329 327 336 344 344 344 344 342 333 334 344 345 347 350 350 352 352 352 353 354 354 355 353 353 353 352 352 352 350 348 350 351 351 353 355 356 356 358 359 361 362 362 363 363 363 362 361 361 361 361 361 361 361 361 361 360 358 357 356 357 356 356 356 355 355 355 356 355 354 354 352 351 350 349 349 348 348 347 345 341 340 342 343 343 343 343 343 342 342 341 339 340
322 328 332 330 332 334 334 338 338 331 330 341 339 323 324 337 342 345 348 351 353 352 354 355 355 356 355 355 354 353 352 352 352 351 347 348 350 351 352 355 356 356 356 358 360 361 362 363 364 363 363 362 361 361 362 361 360 360 360 359 358 358 358 358 358 356 355 355 354 353 354 356 355 354 353 352 351 351 350 349 349 347 345 342 340 341 342 342 343 343 342 343 342 342 341 339 340
316 325 333 334 336 335 333 334 330 321 323 337 341 325 320 327 334 344 347 350 355 354 355 354 355 357 355 356 355 353 353 351 352 351 347 347 349 350 353 355 356 356 356 358 359 361 362 363 364 365 364 363 362 362 362 361 360 360 359 359 358 358 358 358 358 357 356 354 353 354 354 355 355 354 353 352 351 351 350 349 348 345 342 341 342 342 343 342 343 343 342 342 342 342 341 340 339
317 328 333 332 335 334 334 333 326 324 326 333 338 331 321 318 327 344 346 347 355 357 356 355 355 356 356 355 354 353 353 352 352 351 348 347 349 351 353 355 356 355 355 358 359 360 363 364 365 365 364 364 364 363 363 362 361 360 360 360 359 358 358 358 358 358 357 356 355 355 355 355 355 354 353 352 351 349 348 347 346 342 340 341 342 342 343 342 343 343 343 342 341 341 341 340 339
324 331 332 330 334 334 335 332 325 327 324 320 327 330 322 317 326 345 348 344 351 356 357 356 355 356 356 355 353 352 353 352 351 350 349 348 350 351 352 354 356 355 355 357 359 360 362 365 365 365 365 364 365 364 364 363 362 361 361 360 360 359 359 358 357 357 357 357 357 356 356 356 355 354 353 352 350 348 346 346 343 341 341 343 343 342 343 343 343 343 343 342 341 341 340 340 340
329 330 329 330 332 332 334 331 324 323 320 316 321 324 322 318 322 334 343 340 345 352 355 356 355 355 355 354 352 352 352 352 351 350 350 350 351 352 352 354 355 355 355 356 358 361 361 364 365 366 366 365 365 365 364 364 363 362 362 361 361 360 359 358 357 357 357 357 357 356 357 356 355 354 352 351 349 347 345 343 342 341 342 343 343 343 342 342 343 343 343 342 341 341 340 340 340
328 329 329 328 329 330 331 329 324 319 317 318 320 322 323 319 319 327 339 342 345 346 348 352 355 354 354 355 352 351 352 353 352 350 350 351 352 352 352 354 355 355 356 356 359 361 361 363 365 365 366 365 365 365 364 364 364 362 362 362 361 360 359 359 358 357 357 357 357 356 356 355 354 352 350 349 348 346 343 341 340 341 342 343 343 343 343 342 341 341 342 342 341 341 340 340 340
327 329 327 322 322 325 323 322 323 319 317 320 321 322 323 317 319 328 340 346 344 340 340 346 353 355 355 354 352 352 351 352 353 351 351 351 353 353 353 354 356 358 358 358 359 360 361 362 364 365 366 366 366 365 365 364 364 364 363 362 362 361 360 360 359 359 358 358 357 355 355 354 352 350 349 347 346 344 342 342 341 341 342 343 343 342 342 340 339 340 341 342 341 341 340 340 340
326 325 321 316 316 319 318 316 319 318 318 321 322 321 320 319 325 333 339 340 340 340 338 339 346 353 356 354 353 352 351 351 352 352 351 352 352 354 355 356 357 359 360 359 359 359 360 362 363 365 365 366 365 365 365 364 364 364 363 363 363 362 361 360 360 360 359 359 357 355 354 353 352 351 348 346 345 343 343 343 342 342 343 343 342 341 340 340 339 339 341 342 341 340 340 340 339
323 320 316 314 315 317 318 317 318 318 316 319 323 322 319 319 328 338 339 337 338 339 338 339 342 348 353 355 353 352 351 351 352 353 353 352 353 355 356 357 358 360 360 360 360 359 360 362 363 364 365 365 365 365 365 364 364 364 363 364 363 363 362 361 361 360 359 359 358 356 354 353 352 351 348 346 344 343 343 343 343 343 343 343 342 341 341 341 341 340 341 342 341 340 340 339 339
322 324 323 317 315 316 316 315 316 316 315 316 322 324 317 315 326 338 340 337 338 337 336 341 344 346 350 353 353 351 351 351 351 353 353 353 355 356 357 358 359 361 361 360 360 360 360 362 363 364 364 365 366 365 364 364 364 363 363 364 364 363 363 362 361 359 359 359 358 357 355 353 352 350 348 346 344 343 342 343 344 343 343 343 342 342 342 342 342 342 342 342 341 340 340 339 339
321 326 322 316 318 320 315 315 315 314 315 315 317 321 322 324 333 341 340 337 336 337 338 341 344 347 348 350 352 351 350 351 351 352 354 354 355 357 358 358 359 361 360 359 360 360 361 362 363 364 364 365 366 365 365 364 364 364 364 364 364 365 364 363 361 360 360 359 358 357 356 354 352 350 348 347 345 344 343 344 344 343 343 343 343 343 343 342 342 343 342 342 341 340 340 340 339
320 320 316 320 329 325 315 313 316 315 314 316 316 319 323 326 333 337 338 336 335 336 338 339 343 347 348 349 351 351 351 351 351 353 354 355 356 357 358 357 358 359 359 360 360 361 361 362 363 364 364 364 366 365 365 364 364 364 365 365 364 365 365 363 362 361 360 359 358 358 356 354 352 350 349 347 346 344 343 344 344 342 343 343 343 343 342 342 343 343 342 342 341 340 340 340 339
321 315 317 326 330 327 319 314 316 316 315 315 314 316 318 317 322 332 336 334 333 335 335 335 340 347 349 349 350 351 351 352 352 354 355 355 356 357 358 357 357 358 359 360 360 361 362 361 363 364 364 365 365 366 365 364 365 365 364 366 365 365 365 363 362 361 360 359 358 357 355 353 352 350 349 347 346 345 344 344 343 342 342 343 342 342 341 342 342 342 341 342 341 339 340 339 338
323 320 325 325 318 317 318 315 315 316 315 315 313 314 316 314 318 327 333 334 335 335 334 334 337 345 350 349 350 352 351 351 353 353 354 356 355 357 358 357 356 358 359 360 360 361 361 362 363 363 364 364 364 366 366 365 365 365 365 366 365 365 364 362 362 361 359 358 357 357 356 354 353 350 348 346 345 344 344 344 343 342 342 342 342 341 341 342 342 341 340 340 340 339 339 339 338
324 323 327 325 319 317 317 317 317 314 314 315 313 313 315 319 325 330 334 337 336 334 336 336 335 342 350 351 349 350 352 352 352 352 354 355 354 356 358 356 356 357 359 360 360 359 360 361 362 362 363 364 364 365 365 365 365 365 365 366 366 365 363 362 362 360 358 358 357 357 355 354 352 349 347 346 344 343 343 344 343 341 341 341 341 340 340 341 341 340 340 338 339 339 339 339 338
319 317 318 319 320 320 319 318 316 315 314 314 315 313 313 323 334 334 335 337 335 335 335 336 335 335 344 351 350 351 353 353 353 352 353 353 353 355 356 356 356 357 359 359 358 358 358 359 361 362 362 364 364 365 365 366 366 365 366 366 365 364 362 361 361 359 358 358 357 356 355 353 351 348 346 345 343 342 343 344 342 340 340 340 341 340 340 340 340 340 340 339 338 339 339 338 337
320 317 316 317 318 317 315 316 316 315 313 313 315 313 314 325 337 336 335 336 333 334 334 334 337 333 337 349 351 351 354 354 352 352 351 352 353 355 355 356 356 356 358 359 358 358 358 358 360 360 361 362 362 365 366 366 366 366 366 365 364 363 361 361 360 358 358 357 356 354 354 353 350 347 344 343 343 343 343 343 342 340 340 340 341 341 340 339 339 339 339 339 338 338 338 338 338
Wind_Speed
12 12 11 8 6 6 6 5 1 2 1 6 6 6 8 8 9 9 10 8 7 6 6 7 7 5 5 9 10 10 10 6 3 2 6 8 11 11 11 13 14 16 16 15 16 18 18 18 20 22 24 23 22 21 20 20 20 22 23 23 23 22 19 18 16 15 15 15 15 15 15 14 14 14 13 13 13 13 13 12 11 11 10 10 9 9 9 9 9 9 8 8 8 9 9 9 8
13 11 10 8 6 6 2 2 1 4 5 6 6 7 8 7 8 9 9 8 8 7 7 7 7 8 9 11 8 8 11 9 7 7 9 12 14 12 12 13 14 15 16 17 17 18 17 18 20 22 22 22 23 22 21 20 20 21 22 22 22 22 19 17 16 15 15 15 15 15 15 14 13 13 13 13 13 13 12 11 11 10 9 9 9 9 8 8 8 8 8 8 8 8 8 8 9
12 10 9 7 7 6 3 2 1 5 6 6 6 6 6 7 8 10 10 10 10 9 8 8 8 6 5 8 7 7 9 10 12 10 9 12 11 11 12 13 15 15 16 17 17 17 16 19 22 23 22 22 23 21 21 22 21 20 22 22 22 22 19 17 16 15 15 15 15 15 15 14 13 13 13 13 13 12 11 11 10 10 9 8 8 7 8 8 7 7 7 7 7 8 8 8 9
11 9 7 5 5 4 3 0 3 5 6 6 6 6 6 8 10 10 10 11 10 9 7 7 7 5 4 10 9 11 11 9 12 10 7 9 10 11 13 13 15 15 15 16 17 19 18 20 22 23 23 23 23 22 22 22 21 21 22 23 23 22 19 17 16 15 15 16 15 15 14 13 13 13 13 12 12 11 11 10 9 9 8 7 7 7 7 7 7 7 7 7 7 7 7 8 7
9 7 5 5 3 1 2 2 5 6 6 5 6 6 7 9 10 11 11 10 8 7 6 5 6 6 8 9 5 8 9 9 10 10 9 11 12 13 13 13 14 14 16 15 16 19 21 20 21 23 23 23 23 22 22 21 21 21 21 22 21 21 19 16 16 15 15 15 15 14 14 13 13 13 12 12 11 11 10 9 9 8 7 6 6 6 7 8 7 6 7 6 7 7 7 7 6
8 6 5 7 3 2 2 3 6 8 6 5 7 7 8 9 10 11 10 9 7 6 5 4 7 9 8 8 7 8 7 8 9 9 12 14 13 14 14 13 14 15 16 16 16 17 20 20 20 22 23 23 23 23 23 21 21 21 20 21 20 20 19 17 16 15 15 15 15 14 14 13 13 12 12 11 11 10 9 8 8 7 6 6 6 7 7 7 6 6 6 6 6 7 7 6 5
6 5 4 5 3 2 1 7 6 7 6 6 7 8 9 9 10 11 11 9 7 6 4 5 9 9 8 7 9 9 7 8 9 10 13 15 14 14 13 13 15 17 16 16 16 17 19 19 18 20 22 23 23 23 23 22 21 21 21 20 20 19 18 16 16 16 15 15 15 14 13 13 12 12 11 10 10 9 8 7 7 7 6 5 6 6 7 6 5 5 5 6 6 6 7 6 6
5 4 2 3 1 1 4 8 6 7 7 7 8 8 9 9 9 9 9 8 7 7 5 8 8 8 9 7 7 7 9 9 10 14 15 15 14 14 13 13 15 16 16 16 17 17 18 19 19 18 19 21 22 21 20 20 19 20 20 19 19 18 17 16 15 15 15 15 15 14 13 12 12 11 10 9 9 8 7 7 6 6 5 4 5 6 5 5 4 4 4 6 6 6 7 6 6
6 4 2 3 1 3 5 6 7 7 7 7 8 8 8 8 7 7 7 6 7 8 8 8 5 6 10 9 9 8 9 11 14 16 15 15 14 13 13 13 14 16 17 16 17 17 18 19 19 18 18 19 20 19 19 18 19 19 19 19 18 17 16 15 15 15 15 15 14 13 12 12 11 11 9 8 8 7 7 6 6 5 3 3 3 4 4 4 3 2 3 5 6 6 6 6 6
5 3 3 2 2 4 5 6 6 7 7 7 8 8 8 7 6 6 7 7 9 9 8 6 3 8 13 11 9 7 10 14 16 15 15 15 14 13 13 13 14 15 16 16 17 17 18 19 19 18 17 18 19 19 19 19 19 19 19 19 18 16 16 15 15 15 14 14 13 12 11 11 10 9 8 8 7 7 7 6 5 4 3 3 2 3 3 3 3 3 4 5 5 6 6 6 6
3 2 3 2 3 4 5 6 6 7 8 7 8 7 6 7 7 6 6 8 9 9 9 6 7 13 14 11 7 9 14 16 16 16 16 15 14 13 14 13 14 15 16 16 16 17 18 19 19 19 18 18 19 19 20 20 20 19 19 18 17 16 15 15 14 14 13 13 12 12 11 10 9 8 8 8 7 7 6 6 4 3 2 3 3 4 3 3 3 4 5 6 6 6 6 6 6
3 2 3 2 4 5 4 5 6 7 7 6 8 7 5 6 6 7 7 7 8 10 10 6 9 13 12 10 6 11 16 15 16 16 16 15 14 13 13 13 14 14 16 16 16 17 19 20 20 19 18 18 19 18 18 19 19 19 19 18 16 15 14 14 13 13 12 12 12 11 10 9 8 8 8 8 7 7 6 5 3 1 3 3 4 4 3 3 3 4 6 7 7 7 7 7 7
3 1 3 1 3 3 4 5 6 6 5 5 7 7 5 6 6 7 7 8 8 9 9 7 11 11 10 10 8 12 14 15 16 16 16 15 14 14 14 14 14 14 15 16 17 17 18 19 19 19 18 18 18 17 16 17 17 17 17 17 15 14 13 13 13 12 12 11 10 10 9 9 8 8 8 7 7 6 5 4 2 1 2 2 3 3 3 4 4 5 6 7 7 8 9 8 8
4 2 3 1 1 1 3 4 5 4 5 6 7 8 6 4 5 6 6 9 7 7 9 9 11 10 10 11 10 11 14 18 17 16 16 15 15 14 14 14 14 14 14 15 16 17 17 17 17 18 17 16 16 15 15 15 15 15 15 15 14 13 12 12 12 11 10 10 9 9 8 8 8 8 7 7 6 6 5 3 2 0 1 2 2 2 4 5 6 7 7 7 7 8 8 8 7
4 3 3 1 0 1 2 2 3 2 5 8 8 9 7 4 5 6 6 7 7 8 10 10 9 6 10 11 10 12 18 21 18 17 17 15 15 14 14 14 14 14 13 14 15 15 14 15 16 16 16 15 15 14 14 14 14 14 13 13 13 12 12 11 10 10 9 9 9 8 8 8 8 8 7 6 6 5 4 3 3 1 2 4 4 4 5 6 7 7 7 7 7 7 7 6 6
4 4 4 2 0 1 1 2 2 2 6 9 9 9 8 7 7 6 5 4 7 9 8 9 7 2 8 11 12 19 23 23 19 18 17 16 16 15 15 14 14 14 13 13 13 13 13 13 14 14 15 14 14 13 13 13 13 13 12 12 11 11 11 10 10 9 9 9 9 9 9 8 8 7 6 5 5 4 3 4 4 3 3 5 6 7 7 7 7 7 7 7 7 6 6 6 6
4 5 4 1 1 0 2 2 1 3 7 10 11 10 8 9 7 5 5 4 9 10 7 9 6 2 7 11 17 24 25 23 20 19 18 17 17 16 15 15 15 14 13 13 12 12 12 12 13 13 13 13 12 12 13 13 12 12 11 11 11 10 10 10 10 9 9 9 9 9 9 8 7 7 6 5 4 3 4 5 5 5 5 5 6 7 7 7 7 7 7 6 6 6 6 6 6
4 5 3 1 1 2 2 2 2 4 7 10 12 11 8 11 9 6 7 7 10 9 8 9 6 6 10 15 22 25 25 24 22 20 19 17 17 16 16 16 15 15 14 14 12 12 13 12 12 12 13 13 12 12 12 12 12 11 11 11 10 10 10 10 9 9 9 9 9 9 8 7 7 6 5 5 4 4 3 5 6 6 6 7 8 7 7 6 7 7 6 6 6 6 5 4 4
6 4 3 2 1 3 2 2 3 3 7 11 12 11 8 10 10 8 9 9 11 10 9 10 9 11 14 19 24 25 25 24 22 22 20 18 17 16 16 16 16 16 15 14 14 13 13 12 12 13 13 13 12 11 11 11 12 11 11 11 10 10 10 9 9 9 9 9 8 8 7 6 6 6 5 5 4 4 5 6 7 7 7 8 8 8 8 7 8 7 6 6 6 5 4 3 3
7 5 4 1 1 1 0 2 4 4 8 12 12 10 8 10 10 9 9 10 11 10 10 12 11 14 17 20 23 24 24 23 23 23 21 20 18 17 16 16 16 16 15 15 14 14 14 13 13 13 13 13 12 11 10 10 11 10 10 10 10 10 10 9 9 8 8 8 8 7 6 5 5 5 5 5 4 4 6 7 7 7 7 8 9 9 8 9 9 8 7 7 5 4 4 4 4
5 5 6 1 2 2 2 4 6 7 9 12 11 11 10 10 10 9 10 10 10 9 11 13 13 17 19 20 22 24 23 22 23 22 21 21 19 17 15 15 15 14 15 14 14 15 14 13 13 13 13 13 12 11 10 10 10 10 9 9 9 9 9 8 8 8 8 8 7 6 5 5 5 4 4 4 4 4 5 6 6 5 5 6 9 8 6 8 8 6 6 5 4 4 4 4 4
5 7 9 4 2 3 3 5 7 9 10 12 12 11 10 10 10 10 11 8 6 8 12 13 14 17 20 21 22 22 22 22 22 22 21 21 19 18 16 15 14 14 14 13 14 15 15 14 14 14 13 13 12 11 10 9 10 9 9 9 9 8 8 8 8 8 7 7 7 5 5 5 5 5 4 4 4 4 4 5 5 4 4 6 7 6 6 7 7 6 5 5 5 5 4 4 5
6 7 9 7 5 4 2 6 9 10 11 13 12 10 10 11 10 10 12 6 3 5 11 12 14 18 21 22 21 20 20 20 21 22 22 21 20 18 17 17 15 15 14 13 14 14 15 14 14 14 13 13 12 11 10 10 10 9 9 9 8 8 8 8 7 7 7 7 6 6 5 5 5 5 4 4 4 4 4 4 5 4 5 5 5 5 6 7 7 6 6 6 6 6 5 5 5
8 7 8 7 6 6 2 7 11 12 12 12 11 11 12 13 10 10 12 6 5 5 11 13 15 19 21 21 20 20 20 20 21 21 21 20 20 18 17 17 16 15 14 14 14 14 15 15 15 14 14 14 13 12 11 10 10 9 9 9 8 8 8 7 7 7 6 7 7 6 6 5 5 5 4 4 3 3 4 4 5 5 5 5 5 6 6 6 5 5 5 6 7 7 7 7 6
11 10 7 5 5 6 5 8 12 13 10 10 12 11 12 11 7 9 12 7 5 7 12 14 16 19 19 19 20 19 18 20 21 20 20 18 19 19 17 16 16 16 16 16 15 14 15 15 15 14 14 14 13 13 12 11 10 10 9 9 9 8 8 7 6 6 6 7 7 7 6 6 5 5 4 3 3 3 4 4 5 5 5 6 6 6 6 5 5 5 5 6 7 7 8 8 8
9 11 7 4 6 6 8 10 13 13 9 11 14 12 12 9 5 8 10 6 6 11 14 15 17 19 18 18 18 18 17 18 19 20 19 17 18 19 18 17 16 16 16 16 16 15 15 16 16 15 14 14 14 13 12 12 11 10 10 9 9 8 8 7 6 6 7 7 7 7 7 6 6 5 3 3 3 3 4 5 5 5 5 5 5 6 6 5 5 5 5 6 7 8 8 8 8
3 7 6 6 7 6 9 11 14 13 10 13 14 12 12 10 6 7 10 8 9 13 15 16 16 17 18 17 17 16 17 18 20 19 19 18 17 19 19 18 18 17 17 17 16 15 15 16 17 16 16 14 14 13 13 12 11 10 10 9 9 8 8 7 7 7 7 7 6 7 7 7 6 5 3 3 4 4 5 5 6 6 6 6 4 5 6 6 6 6 6 7 7 8 7 7 7
2 6 4 5 6 6 10 12 14 11 11 14 12 11 11 10 9 6 11 11 10 14 15 16 16 16 16 17 16 14 15 18 20 19 19 19 18 18 20 19 19 18 18 18 17 16 16 17 17 17 17 15 14 14 13 12 12 11 10 10 9 9 8 8 8 7 7 7 7 7 7 7 6 5 4 4 4 5 5 5 6 6 6 7 5 5 6 6 7 7 7 8 7 7 7 7 7
6 8 5 5 6 8 11 12 14 11 11 14 11 8 9 11 11 7 13 13 11 14 15 16 15 15 15 15 14 12 14 17 18 18 19 19 18 19 20 20 19 18 18 18 18 17 17 17 17 17 17 17 16 15 13 12 12 11 10 10 10 9 9 9 8 8 8 7 7 7 7 7 6 5 4 5 5 5 6 6 6 6 5 6 6 6 7 6 7 8 7 7 6 7 7 7 6
7 10 7 5 6 8 11 11 14 11 10 15 12 6 7 13 13 10 14 15 14 15 15 15 14 14 14 14 13 12 14 16 17 18 19 19 18 19 20 20 20 19 17 17 18 18 17 16 17 17 18 18 17 16 14 13 12 11 11 10 10 10 9 10 9 9 8 8 7 7 7 7 6 6 5 5 5 6 6 6 6 5 5 5 4 6 6 6 8 7 6 5 5 6 7 6 7
8 8 7 6 5 7 11 11 15 12 10 16 13 5 4 11 15 14 15 16 16 15 15 16 14 14 14 13 14 13 14 16 18 19 19 19 19 18 19 19 20 19 16 16 18 19 18 16 16 16 17 18 18 17 16 14 12 12 11 11 10 10 10 10 9 9 9 8 7 7 7 6 6 6 6 5 5 5 6 6 5 5 5 4 4 5 5 5 6 5 5 5 5 6 6 7 7
7 7 7 8 6 7 12 11 15 13 10 16 13 6 3 8 14 16 15 16 17 15 15 16 16 16 15 14 14 13 14 16 19 20 20 20 19 17 18 19 19 19 17 16 17 18 18 17 16 15 16 18 18 17 17 15 13 12 11 11 11 10 10 10 9 9 8 8 7 7 6 6 6 7 6 6 6 5 5 5 5 5 4 3 4 5 5 4 4 4 4 4 6 6 7 8 8
8 8 8 9 8 8 10 10 14 13 11 15 14 8 4 5 13 16 15 17 17 15 15 17 17 17 16 14 13 13 13 15 17 20 21 21 19 18 18 18 19 19 18 17 16 18 19 18 17 16 16 17 18 17 17 16 14 12 12 11 11 11 10 10 10 9 8 8 7 7 6 6 6 7 7 6 6 5 6 5 4 4 3 3 3 4 4 3 4 4 4 4 5 6 7 7 7
8 9 8 9 11 9 9 10 13 13 12 15 16 12 5 4 12 16 16 17 17 15 15 17 16 15 15 14 14 14 13 14 16 20 23 21 20 19 18 18 19 19 19 18 17 17 18 18 17 17 17 17 17 17 17 16 14 13 12 12 12 12 11 10 9 9 9 8 8 7 6 6 6 6 6 6 6 6 5 5 3 3 3 3 3 3 4 4 4 4 4 4 4 5 6 6 7
10 11 8 8 10 10 10 10 12 15 13 14 16 14 9 6 10 13 15 16 17 16 15 15 16 15 15 14 14 14 14 15 16 19 23 22 20 20 19 18 19 19 19 19 18 17 18 18 17 18 18 17 17 17 17 16 15 14 13 13 12 12 11 10 10 9 9 8 8 7 6 6 6 6 6 6 6 6 5 4 3 3 2 2 3 4 4 4 4 4 5 4 4 4 5 6 6
13 12 10 9 9 10 11 9 13 17 14 13 14 14 14 10 9 11 13 15 15 15 14 14 14 15 14 14 14 14 15 15 16 20 22 22 21 20 19 19 19 19 19 19 19 19 18 18 17 17 18 18 17 17 17 16 15 15 14 13 13 13 12 11 10 10 9 8 8 7 7 7 7 7 7 7 6 6 5 4 3 2 1 2 3 4 4 5 5 4 4 4 4 5 5 5 5
13 13 12 12 11 11 12 10 13 17 13 13 15 14 14 13 10 11 12 14 15 15 16 15 14 15 14 15 15 16 16 15 17 20 21 22 21 20 19 19 19 19 19 19 20 20 20 19 19 18 18 18 18 17 17 17 16 16 15 14 14 13 12 12 11 11 10 9 9 9 8 7 8 8 8 7 7 6 5 4 2 1 2 2 2 3 4 5 4 3 3 4 4 4 4 3 3
13 13 11 12 11 11 12 10 11 16 12 10 14 14 14 13 10 10 12 14 15 16 17 16 17 16 14 16 17 16 14 13 15 18 20 22 22 22 21 19 20 20 20 21 21 21 20 20 20 19 18 18 19 18 17 17 17 16 14 14 13 13 12 12 12 11 11 10 9 10 9 8 8 8 8 8 7 6 5 4 3 2 3 2 2 3 4 4 3 2 3 4 3 2 3 3 4
12 11 10 10 11 9 10 9 10 13 9 8 12 13 12 13 12 10 13 15 14 15 17 16 17 16 15 16 16 16 15 14 15 17 19 22 23 23 22 20 21 21 21 21 21 21 20 21 21 20 19 19 20 19 18 17 16 15 14 12 12 12 12 12 11 10 10 10 10 10 10 10 10 9 8 8 7 7 6 5 4 3 3 2 2 3 3 3 2 2 3 3 2 1 1 2 4
12 12 10 10 11 10 8 9 12 12 9 8 10 10 9 11 13 13 14 15 13 14 17 16 15 16 16 17 16 16 16 16 16 17 18 21 23 24 23 22 21 21 21 21 21 21 21 21 21 21 21 20 20 20 19 18 16 15 14 12 11 11 11 10 11 11 11 10 10 10 10 10 11 10 8 7 7 7 7 6 4 3 3 2 2 3 3 3 3 3 2 2 2 2 1 1 3
14 15 13 11 12 14 11 11 11 11 10 9 8 7 8 10 14 13 12 15 15 14 16 16 15 16 16 16 17 17 17 16 17 18 18 19 22 24 24 23 22 22 22 22 22 22 21 21 22 21 21 21 20 20 20 18 17 16 16 14 12 11 11 10 11 12 11 11 11 10 10 10 10 9 8 8 7 7 7 6 5 4 3 3 2 3 2 2 2 2 2 1 1 3 2 2 2
14 16 16 15 13 16 16 13 11 9 9 9 9 8 7 10 15 14 12 14 16 15 16 17 17 16 16 16 16 17 17 17 17 18 18 19 22 24 25 24 23 23 23 23 22 22 21 21 22 22 21 21 21 20 20 19 18 18 17 16 14 12 12 12 12 12 11 11 10 9 9 9 10 9 9 8 7 7 7 6 5 4 4 3 3 3 2 2 2 2 2 1 1 1 2 2 1
11 14 17 18 14 14 16 15 12 9 8 10 12 9 7 8 12 13 13 14 17 17 17 19 17 16 16 16 15 16 16 16 16 17 18 19 22 24 24 25 25 24 24 23 22 22 22 21 21 22 21 20 20 21 21 21 19 18 18 17 15 14 13 12 12 11 11 10 9 8 8 9 9 9 8 8 8 8 7 7 6 5 5 4 4 3 2 2 2 2 2 1 1 1 0 1 1
11 12 16 18 15 14 15 15 12 10 9 9 12 11 9 8 8 8 11 15 16 17 19 19 18 18 19 17 17 17 17 17 16 17 18 19 21 24 25 26 26 26 25 23 22 22 22 22 21 22 21 20 20 21 22 22 20 19 18 17 16 15 14 13 12 11 11 10 9 8 8 8 8 8 8 9 9 9 8 8 8 6 6 6 5 4 3 2 2 2 2 2 2 2 1 1 1
11 9 14 16 15 15 15 14 12 12 11 8 11 13 9 9 8 6 9 14 15 17 19 20 20 21 20 20 20 19 18 18 17 17 18 19 22 25 26 26 26 26 26 24 23 22 22 22 22 22 21 20 20 20 21 22 21 19 18 18 17 16 15 14 13 12 11 10 9 9 8 8 9 9 10 10 10 10 10 9 8 8 7 7 6 5 4 3 3 3 3 3 3 2 2 1 1
8 6 12 14 13 13 13 12 11 12 13 10 12 14 9 8 8 8 10 12 13 15 17 18 21 21 21 21 21 20 18 17 17 18 18 20 24 26 27 27 27 27 26 25 23 22 22 22 22 22 22 20 20 21 21 22 21 20 19 19 19 17 16 15 13 12 11 11 11 11 10 10 10 10 11 11 11 11 10 9 9 8 8 7 6 5 4 4 4 4 4 4 3 3 3 2 2
8 6 11 11 10 10 10 9 9 11 12 12 15 15 11 10 9 8 9 12 13 12 12 15 18 21 21 20 20 20 18 16 17 18 18 21 25 27 27 26 27 26 26 25 24 23 23 22 23 23 23 21 20 21 22 22 22 21 20 20 20 19 18 16 14 14 13 13 12 12 12 12 11 11 10 11 12 11 10 9 9 8 8 8 7 6 4 4 4 5 5 5 4 4 4 3 3
10 8 10 9 7 7 7 7 8 11 11 12 17 17 14 11 10 7 10 14 14 11 11 13 17 20 20 19 19 19 18 17 17 17 17 19 21 24 26 26 26 26 25 25 25 24 23 23 23 24 24 23 22 22 23 23 22 22 21 21 21 21 19 18 17 16 16 15 14 12 12 12 11 11 11 11 12 12 11 10 9 9 9 8 7 6 5 5 5 5 5 6 5 5 5 4 4
12 10 11 10 8 7 8 9 8 10 11 12 16 16 14 11 11 11 10 12 12 11 11 10 12 17 18 19 19 17 17 18 17 16 17 17 17 19 23 25 25 24 25 25 25 25 23 23 24 24 25 24 23 23 23 24 23 22 22 22 21 21 20 20 19 18 17 16 14 13 12 12 12 12 12 12 12 12 11 10 9 9 9 9 8 8 7 6 6 5 6 6 6 6 5 5 4
14 13 11 11 10 9 11 10 8 10 12 13 12 11 11 9 10 13 15 14 13 13 13 10 9 13 16 18 18 17 18 18 17 16 16 16 16 17 21 24 24 24 26 26 26 25 24 23 24 25 25 25 24 24 24 25 25 24 23 22 21 21 21 21 20 19 17 15 13 14 14 13 13 13 13 13 12 11 11 10 10 10 10 10 10 9 8 8 7 6 6 6 6 6 5 5 4
14 14 13 12 11 10 10 9 9 10 10 13 13 9 9 9 7 7 10 12 12 12 11 8 9 10 12 15 17 17 19 19 17 17 17 17 18 20 22 24 25 25 27 27 26 26 24 23 24 25 25 25 25 25 25 25 26 25 24 23 22 21 20 20 20 19 17 15 14 14 15 14 13 12 13 13 12 11 11 10 10 10 10 11 10 10 9 8 8 7 6 6 6 5 5 5 5
13 13 13 13 12 11 8 9 12 11 10 11 11 7 7 8 6 6 7 8 10 10 9 9 10 11 11 12 15 16 17 18 18 17 18 19 19 22 24 24 25 25 26 27 26 26 26 24 24 26 26 26 26 25 26 26 26 25 25 24 23 21 20 19 19 18 17 16 15 14 14 14 13 12 12 12 11 11 11 10 10 10 10 11 10 10 9 8 8 8 7 6 6 5 5 5 5
9 13 15 13 13 13 10 11 11 11 12 11 8 8 8 8 9 12 13 14 13 12 11 11 11 12 13 12 14 15 16 17 18 17 18 19 20 22 25 26 26 26 26 27 27 28 29 27 25 26 26 25 26 27 27 26 25 25 25 24 23 21 20 19 18 17 17 16 15 15 14 14 13 12 11 11 12 12 11 10 10 10 10 10 10 10 9 8 8 8 8 7 7 6 6 6 6
8 11 14 11 9 12 11 10 9 11 12 10 10 12 11 10 9 11 15 18 17 16 14 14 11 12 14 14 14 15 16 17 18 19 19 19 19 21 25 27 27 28 28 29 30 29 29 28 27 27 27 27 27 27 27 26 25 25 24 24 23 21 20 18 17 16 16 16 15 14 13 13 13 12 11 11 11 11 11 11 10 10 10 10 10 10 9 9 8 8 8 8 8 7 7 7 7
15 9 11 11 9 10 10 9 10 12 11 10 13 15 11 11 9 8 12 15 16 16 14 13 11 12 14 13 14 16 16 16 17 18 17 17 18 21 25 27 28 28 28 29 30 29 27 27 27 27 29 30 29 27 25 25 24 24 23 23 23 21 19 18 16 16 17 17 16 14 13 13 12 12 12 12 11 11 11 11 11 11 11 10 10 10 10 9 9 8 8 8 8 7 7 7 7
18 11 9 12 11 10 10 9 8 11 11 10 14 14 10 10 11 11 11 11 11 12 10 9 9 11 13 12 13 14 15 15 16 17 17 18 19 23 28 29 28 29 28 28 29 28 28 28 27 28 28 29 28 26 25 25 24 23 21 21 21 20 19 18 17 18 18 17 16 15 14 13 13 13 13 12 12 12 12 12 12 12 12 11 11 11 10 9 9 9 8 8 7 7 7 7 7
14 12 11 12 9 9 11 11 10 11 12 10 11 12 9 8 10 13 14 11 11 11 11 10 10 11 12 12 12 13 14 16 16 16 17 18 19 22 27 29 28 28 27 28 28 28 29 29 28 29 28 27 28 27 26 25 24 23 21 20 21 21 21 19 18 19 18 16 17 18 17 15 14 14 14 14 14 14 14 13 13 12 12 12 11 11 10 10 10 9 9 8 8 8 8 8 7
14 12 13 13 10 10 12 12 12 12 12 11 11 11 10 7 7 11 14 14 14 14 14 12 12 14 12 10 12 13 14 15 16 15 15 16 16 18 22 25 25 26 27 27 27 27 28 29 28 28 28 28 28 27 26 24 23 22 22 22 23 23 21 20 20 21 20 19 21 22 20 18 17 17 16 16 15 15 15 15 14 13 13 12 12 12 11 10 11 10 10 10 9 9 10 9 9
Wind_Direction
161 164 168 177 186 216 216 232 232 165 148 76 80 93 81 86 113 116 113 115 99 83 80 82 72 50 73 92 99 85 48 28 22 55 84 100 119 112 112 110 112 119 124 133 139 137 134 145 152 152 151 148 147 147 144 143 145 147 147 146 145 143 144 145 144 142 139 137 135 132 130 127 122 117 113 109 105 100 96 94 90 87 84 83 80 76 73 70 67 64 60 55 52 52 53 55 54
160 164 171 186 196 237 255 225 257 105 100 79 72 78 97 115 123 112 107 101 90 99 97 84 77 74 86 95 110 93 57 56 78 78 89 111 116 111 114 114 117 122 123 129 132 129 130 141 150 151 149 149 149 148 143 138 141 147 148 148 147 145 144 145 144 142 140 139 137 134 131 126 121 117 114 110 105 100 98 94 90 88 87 86 81 78 75 71 68 64 60 55 51 48 48 51 52
164 165 176 200 212 235 269 239 309 76 85 82 81 80 108 113 106 100 98 96 99 115 112 103 89 73 105 100 70 80 86 85 95 94 106 123 118 114 117 117 120 122 122 127 128 130 135 138 145 150 148 150 149 150 146 138 138 144 146 146 146 141 140 143 142 141 140 139 137 133 130 126 123 119 114 109 105 102 99 95 93 93 91 91 88 84 80 75 69 64 61 57 53 50 46 45 48
167 175 186 221 230 222 264 267 32 54 76 82 93 88 100 101 101 99 102 107 114 125 117 112 90 35 61 90 81 90 99 95 101 106 116 122 114 120 123 119 120 120 122 126 132 138 142 137 140 147 150 152 149 150 149 140 137 139 140 142 143 137 137 142 142 142 141 138 136 132 129 127 125 121 115 110 106 103 100 98 98 98 99 99 97 90 86 81 71 64 57 51 50 49 49 46 43
170 188 209 252 275 310 307 58 47 55 58 58 95 100 101 103 109 110 112 117 125 127 121 124 102 80 68 69 90 105 104 107 110 108 112 114 117 128 128 122 118 118 120 124 132 136 138 138 140 144 149 150 149 149 148 143 138 139 139 139 139 136 139 144 143 143 140 138 136 133 131 130 128 121 114 111 109 105 102 103 105 106 108 107 101 90 82 76 68 59 48 43 42 43 48 46 37
176 194 220 254 284 322 294 71 59 71 47 24 91 108 114 115 118 119 121 119 118 116 121 122 114 117 88 57 68 88 105 118 117 112 116 122 127 132 129 126 120 118 119 121 125 128 132 136 137 141 145 145 148 148 147 148 145 143 143 142 141 141 144 145 144 142 140 139 138 136 134 133 128 120 116 114 110 106 106 110 115 116 114 104 92 82 75 71 65 56 45 39 34 35 42 38 30
191 206 213 244 241 239 21 67 55 70 51 27 83 111 121 124 125 127 130 125 120 121 117 112 123 119 101 101 86 75 92 111 117 116 122 128 130 130 129 127 121 119 118 118 120 124 131 133 133 135 139 140 146 147 147 151 149 150 149 146 145 145 147 145 144 143 143 142 141 139 136 133 126 121 119 115 110 110 116 122 125 120 110 101 94 90 84 78 73 61 48 41 33 29 34 31 23
215 238 246 264 228 144 56 69 60 60 64 57 76 99 118 131 136 139 137 134 131 131 130 133 138 111 111 134 102 90 100 103 111 116 126 130 130 131 130 128 122 120 117 117 119 124 132 133 133 135 136 137 141 144 145 148 149 151 150 146 143 144 145 145 145 146 146 145 143 140 136 132 127 125 121 114 114 121 129 131 126 114 107 103 101 105 98 89 87 72 48 36 30 24 28 25 12
219 238 264 270 5 81 74 75 79 72 76 81 82 96 121 141 147 144 135 126 128 133 134 142 156 115 124 123 100 114 112 109 118 122 131 130 130 131 132 131 125 123 119 119 122 126 131 133 134 134 134 135 139 142 142 145 147 147 147 145 143 142 143 145 148 148 149 147 145 140 136 134 131 128 122 119 124 133 136 133 124 116 116 98 91 103 98 86 75 52 29 21 21 21 20 20 7
216 227 276 270 48 70 85 76 85 86 84 88 93 109 128 142 152 150 136 125 131 132 126 136 149 125 127 116 108 124 122 126 129 129 135 131 131 130 130 131 127 126 121 123 125 128 131 133 135 133 134 137 139 141 142 143 144 145 146 147 147 145 144 146 148 149 149 147 146 143 140 138 134 130 127 130 137 140 139 133 129 132 122 90 71 76 75 66 46 9 4 357 2 13 8 9 4
227 189 271 275 77 60 69 77 90 92 96 100 103 116 129 140 151 146 133 128 134 130 132 153 135 125 126 117 106 115 128 136 135 134 137 135 133 131 130 129 130 127 124 126 127 128 132 133 134 133 135 138 139 140 141 142 144 146 148 151 152 148 147 147 148 148 148 148 148 148 145 141 137 136 137 142 146 146 142 141 147 145 96 64 42 39 34 31 14 352 349 337 341 354 352 355 353
253 167 236 286 67 68 74 85 92 96 109 116 119 128 135 144 151 144 139 133 138 136 144 162 135 134 131 122 116 126 140 142 137 139 139 138 135 133 133 132 132 129 126 129 130 131 133 133 134 135 138 141 142 142 143 144 146 149 151 153 153 150 149 148 149 150 149 150 150 149 145 141 141 144 149 150 151 150 148 156 162 121 61 46 36 29 10 6 354 338 334 330 332 337 339 342 341
256 244 256 325 51 80 92 91 96 109 120 116 125 133 141 153 154 146 145 140 144 143 141 143 142 146 126 120 135 141 148 146 142 142 142 142 137 136 137 135 134 132 131 130 133 137 136 136 137 137 140 143 143 144 146 146 147 149 150 150 151 150 148 148 149 150 150 150 148 147 145 145 150 154 157 156 157 156 155 170 173 110 56 33 30 16 353 350 348 343 333 331 333 335 339 341 343
255 302 290 331 59 91 79 96 115 126 111 112 126 136 153 154 144 144 149 146 136 126 125 137 151 146 125 128 145 153 154 150 148 146 145 143 139 140 140 139 137 136 136 134 136 140 140 140 140 139 140 142 141 143 144 144 146 147 147 148 150 148 147 147 148 148 147 146 145 147 148 150 154 157 161 162 164 164 162 189 209 80 356 337 334 348 352 345 348 348 338 340 340 340 343 344 347
260 297 281 270 105 125 76 82 96 96 109 128 139 142 151 124 140 152 150 144 113 110 122 144 165 150 146 154 157 159 155 151 151 148 146 145 142 141 141 143 141 141 141 138 140 142 143 141 141 141 143 144 142 144 146 146 148 148 149 149 150 149 147 147 146 147 145 146 148 149 151 153 156 159 163 170 177 173 169 212 244 265 304 313 321 341 352 343 345 350 345 348 346 345 348 346 345
254 284 267 243 232 143 127 113 81 80 116 137 146 152 148 128 159 147 115 117 113 136 146 152 170 158 158 160 151 151 152 152 151 149 148 147 145 143 145 147 145 146 146 146 147 146 147 145 145 146 147 149 147 148 147 149 153 152 154 153 152 152 152 151 150 151 149 151 153 156 157 155 158 161 166 179 192 182 184 232 257 267 288 309 324 335 343 338 342 351 347 346 347 351 353 350 350
239 261 259 232 216 119 115 148 88 75 118 142 151 165 153 137 161 124 113 140 134 155 158 144 153 160 151 142 140 146 150 152 152 151 150 151 151 150 152 153 152 153 155 157 156 155 154 151 151 151 152 153 151 150 149 152 158 157 157 157 157 157 159 159 158 158 156 158 160 162 161 160 161 165 168 182 209 208 209 244 267 284 299 316 327 327 333 338 340 343 338 344 352 354 357 352 348
227 241 253 296 24 73 96 147 95 88 134 152 158 171 161 148 158 143 155 155 140 155 148 138 131 125 129 128 137 144 150 154 156 155 154 158 158 158 158 159 161 160 163 166 165 165 160 157 157 156 156 156 154 153 153 156 159 160 160 161 160 160 163 164 164 164 161 164 167 166 167 172 167 166 167 173 218 243 249 265 276 293 309 322 328 324 328 338 338 335 334 347 356 358 360 341 328
226 251 261 279 11 62 66 149 132 122 140 151 163 172 169 155 155 163 173 155 152 162 149 148 133 124 129 133 141 147 153 158 161 162 160 163 164 164 163 162 166 165 167 170 169 171 167 164 163 161 161 160 159 158 158 159 160 163 162 163 162 165 168 168 171 168 166 169 172 172 174 178 169 167 176 179 208 244 264 280 289 302 319 329 330 330 334 336 336 337 339 347 352 355 346 305 306
226 246 259 250 69 40 157 174 162 139 137 152 164 167 169 156 155 175 177 158 169 175 158 160 148 141 143 142 146 151 157 162 166 167 166 168 170 170 167 165 169 170 171 171 170 173 173 170 168 165 166 165 165 165 164 163 164 167 167 168 168 171 173 174 177 174 173 174 174 178 178 177 174 177 193 198 207 239 273 294 301 308 329 334 327 332 334 327 331 337 337 341 340 332 313 298 311
220 220 255 335 68 262 173 171 171 145 147 158 159 164 168 157 162 181 175 166 181 185 171 171 159 151 150 148 152 156 161 166 170 172 170 172 175 174 172 170 172 172 172 173 172 175 177 176 172 170 170 172 173 172 171 169 169 172 172 173 174 175 176 178 182 180 180 181 181 185 182 181 188 193 200 205 208 231 270 298 305 317 336 315 312 325 320 312 319 321 318 324 316 304 310 314 319
231 216 251 275 279 270 134 160 170 151 159 158 157 168 160 158 174 184 183 177 176 179 174 172 162 155 156 154 155 160 164 169 174 176 174 176 178 177 176 174 175 175 176 179 178 178 181 181 178 175 175 178 180 178 177 175 176 178 178 179 181 180 180 183 186 185 185 187 189 193 192 192 201 208 208 211 218 229 250 275 285 304 310 290 305 321 307 304 308 307 311 313 309 311 317 317 315
239 223 234 245 248 267 121 161 170 160 168 163 162 165 153 167 179 185 193 172 97 159 164 163 159 157 158 156 158 164 168 173 177 179 179 177 179 180 177 177 179 179 181 185 184 183 184 185 184 182 181 182 185 185 183 184 186 185 185 185 188 188 186 189 189 189 191 193 197 200 204 206 210 216 217 222 233 243 255 264 271 284 287 287 303 307 299 302 302 307 317 316 315 315 314 311 306
235 238 226 227 232 251 216 166 173 174 174 166 162 160 163 179 173 180 194 150 85 153 155 154 154 157 160 159 164 167 170 176 179 181 182 180 180 182 180 180 181 181 184 187 187 188 188 189 188 187 187 187 188 189 190 190 192 191 190 190 193 194 193 196 194 192 197 201 205 208 214 219 221 226 227 232 241 251 263 269 278 282 283 288 295 295 296 298 298 307 314 316 318 316 313 310 300
227 240 238 225 231 244 220 177 176 179 174 165 162 163 171 178 160 176 189 149 123 157 150 152 154 157 164 166 169 169 172 178 179 181 183 184 183 183 183 182 183 184 186 188 190 191 191 192 191 192 191 191 192 193 196 195 195 197 195 196 197 198 201 202 199 198 203 208 213 214 220 229 232 235 235 239 248 257 267 273 278 280 284 289 291 292 295 298 299 305 311 313 315 313 310 304 298
216 232 244 234 234 229 208 185 177 178 172 165 165 169 171 167 152 172 178 146 139 155 153 157 159 164 168 170 171 171 175 179 180 181 182 185 185 187 189 187 187 188 188 189 192 192 192 193 194 197 195 195 196 196 200 198 198 199 198 201 201 202 208 207 205 208 211 213 216 218 222 232 239 243 240 241 248 259 269 274 275 275 278 277 285 295 296 300 302 302 308 312 312 310 306 299 298
195 231 252 253 247 215 198 185 177 176 168 169 171 170 164 164 183 179 162 149 150 158 161 163 166 170 171 172 173 173 178 180 181 182 182 185 187 190 192 193 193 191 190 191 193 193 192 193 195 197 199 200 200 200 202 202 201 201 202 204 205 206 210 211 212 215 217 219 220 223 227 233 241 248 244 245 254 264 269 271 270 274 278 269 275 294 295 299 302 301 300 304 307 304 300 295 298
220 233 240 229 228 192 189 180 174 171 166 178 174 161 158 170 206 191 151 156 163 164 166 169 172 175 175 175 173 175 182 182 182 184 186 187 188 192 194 195 195 193 193 194 194 193 192 194 195 196 198 201 203 204 204 204 203 203 206 206 209 211 211 214 217 218 221 224 226 228 231 233 239 247 244 248 257 264 265 268 270 273 280 278 275 279 289 299 299 295 294 299 301 294 293 296 300
226 226 225 183 182 181 181 175 174 173 171 174 161 155 174 187 205 177 148 157 166 169 169 172 177 176 177 177 174 179 185 184 185 188 190 190 190 193 195 196 195 195 196 196 195 195 195 194 195 196 197 199 203 205 204 205 204 204 207 208 210 211 212 218 220 222 223 224 228 228 231 232 236 241 242 248 256 264 263 266 272 271 271 275 275 277 288 296 293 293 290 292 294 289 295 302 306
219 217 226 185 181 181 175 173 173 178 171 164 161 181 198 195 198 168 153 162 166 173 174 175 180 178 180 181 178 182 185 187 189 192 193 193 194 195 197 197 196 197 195 195 196 197 197 195 195 196 196 198 201 204 204 204 205 204 207 209 210 210 214 219 220 224 223 223 225 226 230 231 232 234 238 248 254 261 263 267 270 263 261 267 273 279 283 284 285 285 277 278 287 290 299 307 309
215 211 221 211 210 176 169 175 174 175 168 168 184 226 200 183 185 169 162 170 170 176 178 179 181 178 182 184 183 186 186 190 193 195 196 195 197 197 199 198 197 199 197 196 197 197 198 196 196 196 196 197 199 202 204 204 205 205 207 208 209 211 215 220 221 222 221 222 222 223 227 227 235 244 246 251 255 259 263 268 264 251 260 271 267 267 269 269 272 270 265 281 295 298 305 307 304
206 211 214 211 217 166 164 183 182 175 165 179 200 230 201 168 171 170 170 176 179 183 180 181 184 181 184 185 188 190 186 191 196 198 199 197 198 198 199 199 197 199 198 198 196 196 199 198 197 197 196 196 198 200 203 205 207 207 208 208 209 211 216 222 222 221 221 224 224 223 221 221 244 264 268 264 257 255 259 261 255 249 266 274 256 262 271 267 267 271 277 295 306 308 308 305 301
198 218 223 205 205 175 163 185 190 177 162 184 205 219 215 162 164 169 174 180 186 190 185 184 186 184 185 187 189 192 188 190 197 200 200 198 198 197 197 197 197 198 199 200 196 196 199 198 198 200 198 197 199 200 201 205 208 209 210 210 212 214 218 224 223 222 223 224 227 225 220 221 243 270 282 282 264 250 254 257 250 246 263 270 263 277 290 284 280 290 299 305 309 308 302 299 298
194 214 229 211 204 191 169 179 189 183 174 188 204 217 226 146 161 173 177 182 188 195 191 186 188 188 188 190 191 193 193 193 197 200 199 198 198 197 198 197 197 199 200 202 199 197 199 199 200 202 202 200 200 201 201 205 207 209 212 213 216 218 222 227 226 226 224 225 227 222 221 222 239 264 275 278 270 256 251 257 253 246 260 280 292 296 296 295 297 305 312 310 309 302 296 296 298
202 205 218 216 207 200 185 177 184 187 190 197 202 215 223 178 162 176 183 185 191 197 196 191 190 190 190 192 195 194 196 199 199 200 199 198 198 197 199 197 197 199 202 203 202 200 199 200 201 202 203 203 203 204 204 206 209 212 215 216 220 222 223 227 228 229 227 228 227 221 222 221 229 251 258 259 261 254 249 255 260 259 278 304 310 300 293 298 309 313 310 304 295 286 288 294 297
214 209 213 215 202 205 203 188 183 185 193 206 205 214 222 205 174 177 186 189 196 200 199 198 195 193 193 194 198 197 200 204 199 198 199 198 198 198 198 198 198 200 202 203 201 201 201 200 201 201 203 204 205 205 205 208 212 215 218 219 221 221 222 224 226 229 228 231 229 223 225 224 226 238 246 250 245 242 250 256 259 269 302 303 299 300 302 309 315 311 297 289 285 280 284 290 300
220 216 218 219 205 204 205 194 185 185 195 210 211 218 224 219 199 184 187 190 200 205 202 204 200 198 197 196 199 199 202 205 197 196 198 198 198 197 197 198 199 199 201 201 201 202 201 200 201 201 201 203 205 206 206 209 212 214 216 218 220 219 219 220 223 227 230 232 230 227 229 228 230 234 241 247 241 236 244 242 234 247 267 269 284 300 305 309 306 294 279 278 282 293 299 299 323
221 222 223 222 216 204 194 188 185 189 204 213 212 224 228 226 218 194 190 194 201 207 206 207 205 203 201 199 201 201 203 203 197 194 196 198 199 197 197 198 199 199 199 200 201 202 202 201 203 203 201 202 206 208 208 210 212 214 216 218 220 219 217 220 226 230 233 234 230 232 235 230 229 235 242 246 239 227 226 224 218 228 243 253 284 299 299 297 291 281 279 279 280 303 316 322 347
221 226 227 225 221 199 179 184 190 192 208 217 208 224 232 226 225 210 202 202 203 209 212 211 209 206 204 203 202 202 202 200 197 196 195 198 200 198 197 198 200 201 199 200 201 202 203 204 206 207 206 206 208 210 210 212 212 212 215 216 217 220 223 226 231 234 235 236 233 236 239 232 231 239 241 236 229 222 219 215 214 224 231 237 281 293 287 278 273 269 273 283 285 273 290 341 358
223 226 226 227 216 197 184 191 197 196 211 231 218 225 239 231 228 221 212 210 207 210 215 217 213 211 210 207 205 204 202 199 198 198 198 198 200 200 199 198 200 201 200 199 200 201 203 205 206 207 208 209 209 210 211 212 212 210 211 213 216 224 229 230 233 235 236 237 238 239 238 234 235 240 236 227 221 221 216 209 214 219 216 224 266 275 264 257 254 251 258 278 298 293 306 38 10
222 224 226 230 211 199 203 195 193 200 210 228 227 229 241 233 229 224 214 212 212 209 212 214 215 214 214 212 210 207 205 201 199 201 201 198 199 200 200 199 200 201 201 200 199 200 202 203 203 204 206 209 210 209 208 209 210 209 209 214 221 227 229 228 229 231 232 234 237 236 232 231 235 237 233 226 219 217 211 207 212 211 211 222 237 241 244 256 255 250 252 250 293 317 346 24 24
219 221 224 233 217 205 209 194 185 206 213 208 214 235 247 229 229 228 214 208 209 207 207 210 212 212 214 215 213 210 208 205 202 203 204 201 200 200 199 199 200 202 202 202 201 201 201 202 201 201 204 207 209 209 208 207 210 211 210 212 216 218 220 221 224 228 229 229 232 232 227 227 232 234 231 223 213 210 208 204 204 206 213 214 210 218 228 247 249 245 245 239 257 335 345 341 32
221 213 216 229 226 214 211 193 188 218 224 202 204 232 254 235 228 225 216 211 208 205 207 208 207 208 211 213 212 211 210 207 204 204 205 204 202 200 200 200 201 203 203 201 202 201 201 201 199 199 202 205 207 208 208 208 209 211 210 210 212 211 214 218 220 227 230 229 230 230 229 230 229 228 227 220 212 210 208 206 204 205 210 202 195 209 221 233 237 235 230 220 221 167 191 308 343
226 207 205 217 223 220 210 197 203 225 225 206 206 223 248 248 237 224 216 214 209 207 210 208 206 207 209 210 211 210 209 207 205 204 204 204 203 202 202 201 203 205 203 201 201 201 200 199 197 198 201 203 205 205 206 207 208 208 207 209 212 213 216 218 216 218 224 225 227 232 236 232 225 222 222 217 211 211 211 209 204 201 202 197 195 205 213 222 226 225 221 205 209 205 197 250 331
232 210 197 204 216 221 213 205 214 226 224 217 212 221 243 250 239 225 215 215 214 213 212 209 207 207 207 209 210 209 209 208 206 204 204 203 203 203 204 203 204 205 205 203 202 201 200 198 197 197 200 202 202 202 203 206 207 206 205 207 210 214 218 220 218 219 221 222 227 234 235 229 222 219 216 212 210 210 206 202 200 200 201 198 198 204 205 213 218 216 216 210 210 210 208 218 237
222 200 195 200 210 218 217 215 221 226 226 227 217 212 229 253 236 214 210 216 221 220 216 211 208 207 206 207 208 207 206 206 207 207 204 203 204 204 205 205 205 206 206 205 203 202 200 199 197 197 199 200 199 200 201 204 206 205 206 208 210 213 216 219 222 221 219 221 227 229 226 222 218 214 212 210 206 203 198 199 202 204 203 201 201 206 208 212 216 216 219 218 213 213 210 210 224
202 188 200 200 205 214 221 222 230 233 225 230 230 212 212 250 246 212 205 217 226 228 223 215 209 208 207 206 206 205 203 203 206 208 206 204 204 204 205 205 205 205 204 203 202 202 201 200 199 199 200 199 197 199 201 202 204 207 209 211 212 214 215 218 220 219 217 218 222 223 220 218 216 216 214 208 201 197 198 203 207 206 205 203 202 207 215 220 218 216 219 217 208 210 210 203 210
209 203 204 196 194 205 217 217 226 238 226 227 236 220 209 238 251 226 210 218 231 238 233 223 210 206 206 205 206 204 201 201 202 204 206 204 203 203 204 204 204 202 200 200 201 202 201 200 198 199 200 199 197 198 201 202 203 206 210 212 215 216 217 217 216 218 218 217 220 223 220 218 220 218 211 202 200 201 202 204 207 207 205 204 204 205 214 223 222 216 217 218 208 204 207 207 212
214 214 206 199 195 195 210 211 210 229 230 230 235 223 213 232 248 247 236 225 229 235 240 240 218 207 203 202 205 203 200 200 199 201 203 202 201 201 201 201 199 198 197 198 200 202 201 199 198 199 200 199 198 198 200 202 203 206 209 212 215 216 217 217 216 218 218 216 219 222 221 222 220 213 205 203 206 205 203 203 205 206 205 204 204 205 212 218 218 217 219 219 212 207 210 215 225
209 211 205 204 204 202 209 213 212 221 227 227 227 223 224 233 242 246 247 244 242 245 250 250 229 215 206 200 201 200 200 200 198 199 200 200 199 197 198 197 195 195 195 196 199 200 200 198 198 199 200 199 198 198 200 202 204 207 209 211 212 213 215 216 217 220 219 214 214 218 223 225 218 210 206 207 208 206 205 207 207 207 206 203 202 206 213 214 213 215 219 222 219 218 221 226 235
209 213 215 214 213 216 214 212 216 220 224 218 206 207 227 232 235 241 243 244 247 255 258 243 223 217 208 202 199 198 200 200 198 197 198 198 196 195 196 194 193 194 195 196 198 197 197 197 196 198 200 199 198 199 200 202 205 207 209 210 210 211 212 213 216 220 218 213 211 213 218 221 217 213 211 208 207 205 205 207 208 209 206 202 204 208 210 210 210 211 216 221 224 223 225 230 239
207 213 220 221 217 222 227 230 230 225 230 223 201 202 230 235 245 249 248 252 250 253 253 237 221 211 204 202 200 200 200 199 198 197 198 196 193 194 195 194 195 196 196 197 196 194 196 196 196 199 200 199 198 199 201 203 205 206 208 209 208 208 207 208 212 212 211 212 211 208 211 215 215 214 209 205 203 203 205 207 209 211 207 204 207 208 208 208 206 210 214 218 223 224 224 229 236
197 207 219 222 222 227 231 234 233 228 233 230 207 211 227 233 244 243 245 254 253 249 246 238 224 205 200 202 201 202 200 198 197 198 197 195 192 193 195 196 196 196 197 197 194 194 195 195 195 198 199 198 198 200 203 204 204 205 207 208 207 205 202 202 205 204 203 206 207 206 213 220 218 214 207 204 203 203 205 206 210 213 210 209 210 207 208 206 204 210 214 215 219 220 224 232 238
205 207 211 212 229 238 235 226 216 219 232 236 224 222 221 225 236 236 236 242 245 246 248 246 228 202 203 206 201 202 200 196 197 198 198 196 193 193 195 197 197 196 195 194 193 194 195 195 195 195 197 198 199 201 202 203 202 203 205 207 206 204 202 202 202 200 198 201 203 205 213 221 217 211 206 204 203 203 205 208 213 216 213 211 212 210 208 206 207 213 214 215 218 219 226 233 238
227 227 209 206 219 222 222 225 221 221 228 238 235 229 223 226 229 220 220 225 231 235 240 243 228 204 206 209 203 201 198 195 197 199 200 198 196 195 196 198 198 197 194 191 193 194 194 196 196 196 198 199 200 200 200 201 201 202 204 205 204 202 201 201 197 196 199 203 204 204 210 216 213 208 205 203 203 205 208 210 213 217 217 213 211 211 211 208 209 217 218 218 218 217 224 233 238
223 237 224 217 221 217 215 221 228 231 232 236 237 233 222 222 228 222 215 213 224 234 236 242 240 221 211 208 203 197 193 195 199 199 199 199 199 198 197 197 197 196 193 192 194 194 195 196 196 197 198 199 199 198 196 198 198 200 201 199 198 198 198 196 194 198 203 204 204 203 207 211 207 204 203 202 205 208 209 211 215 218 218 215 212 213 213 211 213 219 221 222 218 216 225 236 242
204 217 221 213 211 223 226 222 224 233 237 234 237 240 228 210 218 224 224 224 236 250 255 256 259 248 226 206 198 193 192 198 199 201 203 201 201 201 199 197 195 193 192 193 195 195 196 197 197 198 198 197 198 197 196 196 195 196 195 192 193 195 195 192 191 199 202 199 202 207 208 207 203 203 203 201 204 208 209 212 215 218 218 216 215 215 214 213 215 218 219 222 222 223 232 240 245
199 203 216 215 209 215 224 224 220 225 235 236 237 244 239 214 199 211 224 233 235 241 249 254 258 259 244 207 194 193 195 201 201 202 206 204 202 202 199 196 193 193 193 194 196 195 196 197 198 199 199 199 199 197 195 192 190 190 190 191 193 191 189 187 188 199 203 200 206 214 215 209 201 202 206 203 201 206 210 211 212 214 215 215 215 217 216 214 216 219 221 225 227 229 236 243 248